Total_Precipitation_Accumulation
0.01 0.01 0.01 0.03 0.07 0.11 0.12 0.11 0.08 0.06 0.04 0.04 0.04 0.05 0.07 0.05 0.04 0.05 0.06 0.05 0.04 0.05 0.06 0.09 0.12 0.15 0.16 0.17 0.19 0.23 0.29 0.32 0.33 0.40 0.51 0.58 0.65 0.82 1.01 1.05 1.08 1.12 1.11 1.07
0.00 0.00 0.00 0.01 0.02 0.03 0.03 0.01 0.01 0.01 0.01 0.01 0.01 0.03 0.05 0.06 0.05 0.05 0.05 0.05 0.04 0.05 0.04 0.05 0.07 0.09 0.10 0.10 0.12 0.17 0.25 0.34 0.39 0.44 0.58 0.73 0.94 1.05 1.17 1.31 1.29 1.27 1.24 1.20
0.00 0.00 0.00 0.00 0.00 0.00 0.01 0.01 0.01 0.01 0.00 0.00 0.01 0.02 0.04 0.06 0.07 0.08 0.07 0.07 0.06 0.04 0.04 0.04 0.04 0.05 0.07 0.07 0.08 0.14 0.28 0.47 0.65 0.77 1.00 1.27 1.52 1.58 1.49 1.47 1.50 1.48 1.47 1.43
0.00 0.00 0.00 0.00 0.00 0.00 0.00 0.00 0.01 0.00 0.00 0.00 0.00 0.01 0.04 0.10 0.14 0.15 0.14 0.13 0.11 0.11 0.09 0.07 0.07 0.07 0.08 0.09 0.17 0.31 0.54 0.83 1.08 1.23 1.42 1.64 1.74 1.78 1.71 1.70 1.67 1.62 1.52 1.39
0.00 0.00 0.00 0.00 0.00 0.00 0.00 0.00 0.00 0.00 0.00 0.00 0.00 0.02 0.07 0.16 0.24 0.27 0.28 0.27 0.25 0.24 0.18 0.18 0.20 0.20 0.26 0.35 0.53 0.79 1.04 1.28 1.43 1.47 1.55 1.75 1.90 2.04 2.05 1.94 1.80 1.65 1.54 1.44
0.00 0.00 0.00 0.00 0.00 0.00 0.01 0.02 0.02 0.02 0.02 0.01 0.01 0.04 0.15 0.24 0.30 0.35 0.38 0.34 0.32 0.30 0.29 0.34 0.43 0.52 0.66 0.76 0.93 1.14 1.28 1.41 1.40 1.39 1.43 1.54 1.72 1.87 1.89 1.90 1.88 1.74 1.55 1.39
0.00 0.00 0.00 0.00 0.00 0.00 0.03 0.07 0.07 0.05 0.05 0.04 0.06 0.18 0.26 0.26 0.26 0.32 0.35 0.34 0.34 0.34 0.41 0.56 0.70 0.82 0.94 1.04 1.13 1.15 1.14 1.18 1.21 1.19 1.20 1.25 1.28 1.31 1.34 1.41 1.32 1.20 1.09 1.03
0.00 0.00 0.00 0.00 0.00 0.00 0.01 0.04 0.10 0.09 0.07 0.10 0.15 0.36 0.40 0.31 0.25 0.25 0.26 0.32 0.43 0.57 0.67 0.77 0.86 0.94 0.97 1.09 1.15 1.09 1.04 1.03 0.97 0.90 0.91 0.91 0.90 0.89 0.87 0.83 0.77 0.71 0.67 0.62
0.00 0.00 0.00 0.00 0.00 0.00 0.01 0.03 0.09 0.18 0.13 0.12 0.20 0.44 0.44 0.29 0.23 0.22 0.24 0.32 0.47 0.69 0.93 1.08 1.06 0.97 0.88 0.90 0.97 0.95 0.89 0.85 0.77 0.72 0.74 0.75 0.71 0.66 0.61 0.54 0.49 0.46 0.43 0.40
0.00 0.00 0.00 0.00 0.00 0.01 0.02 0.05 0.13 0.23 0.22 0.23 0.30 0.47 0.43 0.32 0.27 0.25 0.30 0.40 0.58 0.80 0.99 1.24 1.37 1.26 0.99 0.78 0.79 0.75 0.73 0.75 0.73 0.68 0.68 0.67 0.55 0.49 0.46 0.43 0.40 0.38 0.39 0.37
0.00 0.00 0.00 0.00 0.01 0.01 0.04 0.10 0.16 0.20 0.23 0.34 0.55 0.70 0.60 0.49 0.44 0.43 0.47 0.54 0.61 0.88 1.17 1.30 1.35 1.22 1.03 0.76 0.67 0.65 0.63 0.67 0.72 0.64 0.66 0.63 0.53 0.42 0.37 0.34 0.31 0.28 0.27 0.27
0.00 0.00 0.00 0.01 0.04 0.06 0.11 0.19 0.27 0.35 0.39 0.41 0.54 0.65 0.53 0.55 0.61 0.56 0.60 0.70 0.72 0.78 0.82 0.85 0.96 0.97 0.90 0.76 0.68 0.72 0.77 0.77 0.69 0.62 0.58 0.53 0.46 0.40 0.39 0.37 0.31 0.28 0.24 0.26
0.00 0.00 0.00 0.01 0.06 0.11 0.26 0.35 0.28 0.37 0.46 0.47 0.58 0.66 0.47 0.49 0.59 0.59 0.66 0.74 0.76 0.71 0.59 0.53 0.64 0.77 0.73 0.66 0.69 0.75 0.89 0.90 0.81 0.68 0.57 0.54 0.50 0.47 0.44 0.39 0.37 0.34 0.35 0.38
0.00 0.00 0.00 0.02 0.08 0.21 0.50 0.61 0.40 0.42 0.54 0.45 0.47 0.52 0.44 0.45 0.52 0.57 0.63 0.68 0.66 0.57 0.47 0.41 0.40 0.42 0.41 0.43 0.47 0.58 0.83 1.02 1.00 0.89 0.76 0.67 0.59 0.52 0.47 0.42 0.41 0.39 0.42 0.46
0.00 0.00 0.00 0.01 0.04 0.13 0.34 0.41 0.31 0.28 0.28 0.31 0.31 0.35 0.44 0.52 0.54 0.55 0.56 0.49 0.39 0.32 0.28 0.24 0.20 0.20 0.22 0.27 0.34 0.45 0.71 0.91 0.92 0.91 0.79 0.65 0.54 0.44 0.42 0.46 0.47 0.44 0.40 0.42
0.00 0.00 0.00 0.00 0.01 0.04 0.08 0.06 0.07 0.08 0.14 0.21 0.26 0.36 0.44 0.46 0.45 0.47 0.47 0.34 0.24 0.20 0.18 0.18 0.16 0.14 0.11 0.11 0.16 0.27 0.45 0.61 0.68 0.73 0.69 0.54 0.47 0.42 0.38 0.41 0.47 0.48 0.38 0.36
0.00 0.00 0.00 0.00 0.00 0.01 0.01 0.02 0.08 0.12 0.13 0.17 0.28 0.41 0.48 0.49 0.55 0.84 0.86 0.54 0.30 0.25 0.22 0.22 0.22 0.19 0.17 0.14 0.14 0.17 0.24 0.33 0.40 0.44 0.45 0.36 0.34 0.40 0.42 0.44 0.43 0.37 0.30 0.33
0.00 0.00 0.00 0.00 0.01 0.02 0.02 0.02 0.09 0.12 0.13 0.13 0.16 0.19 0.24 0.35 0.50 0.67 0.75 0.60 0.40 0.36 0.28 0.24 0.20 0.18 0.15 0.12 0.12 0.13 0.15 0.18 0.20 0.20 0.17 0.14 0.21 0.30 0.31 0.30 0.27 0.23 0.22 0.27
0.00 0.00 0.00 0.01 0.09 0.11 0.02 0.02 0.04 0.06 0.06 0.04 0.05 0.06 0.08 0.12 0.13 0.15 0.20 0.23 0.20 0.16 0.12 0.08 0.05 0.04 0.03 0.03 0.03 0.03 0.02 0.02 0.02 0.02 0.02 0.04 0.05 0.06 0.06 0.06 0.07 0.10 0.15 0.18
0.00 0.00 0.00 0.00 0.03 0.04 0.01 0.00 0.01 0.03 0.06 0.01 0.01 0.01 0.02 0.05 0.08 0.07 0.14 0.09 0.03 0.01 0.01 0.00 0.00 0.00 0.00 0.00 0.00 0.00 0.00 0.00 0.00 0.00 0.00 0.00 0.01 0.01 0.01 0.01 0.01 0.03 0.06 0.08
0.00 0.00 0.00 0.00 0.00 0.00 0.00 0.00 0.00 0.02 0.03 0.00 0.00 0.00 0.00 0.01 0.01 0.02 0.09 0.07 0.00 0.00 0.00 0.00 0.00 0.00 0.00 0.00 0.00 0.00 0.00 0.00 0.00 0.00 0.00 0.00 0.00 0.01 0.01 0.02 0.01 0.00 0.01 0.01
0.00 0.00 0.00 0.00 0.00 0.00 0.00 0.00 0.00 0.00 0.00 0.00 0.00 0.00 0.00 0.00 0.00 0.01 0.04 0.05 0.00 0.00 0.00 0.00 0.00 0.00 0.00 0.00 0.00 0.00 0.00 0.00 0.00 0.00 0.00 0.00 0.00 0.01 0.01 0.02 0.01 0.00 0.00 0.01
0.00 0.00 0.00 0.00 0.00 0.00 0.00 0.00 0.00 0.00 0.00 0.00 0.00 0.00 0.00 0.00 0.00 0.00 0.02 0.06 0.01 0.00 0.00 0.00 0.00 0.00 0.00 0.00 0.00 0.00 0.00 0.00 0.00 0.00 0.01 0.00 0.00 0.01 0.00 0.01 0.01 0.01 0.01 0.01
0.00 0.00 0.00 0.00 0.00 0.00 0.00 0.00 0.00 0.00 0.00 0.00 0.00 0.00 0.00 0.00 0.00 0.00 0.01 0.04 0.02 0.00 0.00 0.00 0.00 0.00 0.00 0.00 0.00 0.00 0.00 0.00 0.00 0.00 0.00 0.00 0.00 0.01 0.00 0.00 0.00 0.00 0.01 0.01
0.00 0.00 0.00 0.00 0.00 0.00 0.00 0.00 0.00 0.00 0.00 0.00 0.00 0.00 0.00 0.00 0.00 0.00 0.00 0.01 0.01 0.00 0.00 0.00 0.00 0.00 0.00 0.00 0.00 0.00 0.00 0.00 0.00 0.00 0.00 0.00 0.00 0.01 0.01 0.00 0.00 0.00 0.00 0.01
0.00 0.00 0.00 0.00 0.00 0.00 0.00 0.00 0.00 0.00 0.00 0.00 0.00 0.00 0.00 0.00 0.00 0.00 0.00 0.00 0.00 0.00 0.00 0.00 0.00 0.00 0.00 0.00 0.00 0.00 0.00 0.00 0.00 0.00 0.00 0.00 0.00 0.01 0.01 0.01 0.01 0.00 0.01 0.01